QPF
0.02 0.03 0.03 0.05 0.06 0.09 0.10 0.10 0.09 0.10 0.09 0.07 0.05 0.05 0.04 0.04 0.03 0.03 0.03 0.02 0.01 0.01 0.02 0.03 0.05 0.07 0.06 0.06 0.09 0.11 0.10 0.09 0.08 0.09 0.09 0.08 0.07 0.06 0.05 0.05 0.06 0.06 0.05
0.03 0.03 0.03 0.04 0.07 0.10 0.12 0.11 0.09 0.07 0.07 0.07 0.08 0.08 0.07 0.06 0.04 0.03 0.02 0.01 0.01 0.02 0.02 0.04 0.05 0.07 0.08 0.07 0.09 0.12 0.10 0.10 0.09 0.09 0.12 0.12 0.11 0.08 0.07 0.06 0.06 0.06 0.06
0.02 0.02 0.02 0.03 0.06 0.06 0.07 0.08 0.07 0.06 0.06 0.07 0.06 0.05 0.05 0.05 0.03 0.02 0.02 0.01 0.01 0.02 0.03 0.03 0.04 0.05 0.05 0.06 0.07 0.09 0.09 0.09 0.08 0.08 0.10 0.13 0.14 0.09 0.08 0.07 0.05 0.04 0.04
0.03 0.03 0.03 0.03 0.04 0.05 0.04 0.06 0.06 0.07 0.07 0.07 0.07 0.07 0.05 0.04 0.03 0.03 0.02 0.02 0.01 0.02 0.02 0.04 0.05 0.06 0.05 0.04 0.04 0.06 0.07 0.07 0.06 0.06 0.06 0.08 0.12 0.12 0.08 0.06 0.05 0.04 0.04
0.05 0.06 0.05 0.03 0.03 0.03 0.04 0.04 0.05 0.06 0.05 0.06 0.06 0.05 0.04 0.03 0.02 0.02 0.02 0.02 0.03 0.04 0.05 0.04 0.05 0.05 0.06 0.06 0.05 0.05 0.06 0.07 0.06 0.05 0.05 0.07 0.08 0.11 0.11 0.07 0.05 0.05 0.05
0.03 0.04 0.04 0.03 0.03 0.03 0.03 0.03 0.03 0.03 0.04 0.04 0.04 0.04 0.03 0.02 0.02 0.01 0.01 0.01 0.02 0.04 0.04 0.03 0.03 0.04 0.04 0.04 0.05 0.05 0.05 0.05 0.05 0.05 0.05 0.05 0.06 0.06 0.07 0.07 0.07 0.06 0.05
0.02 0.03 0.04 0.03 0.03 0.03 0.04 0.04 0.03 0.03 0.03 0.03 0.05 0.05 0.03 0.02 0.02 0.02 0.01 0.01 0.01 0.02 0.02 0.02 0.03 0.03 0.04 0.03 0.04 0.05 0.05 0.04 0.04 0.04 0.05 0.04 0.04 0.04 0.05 0.06 0.06 0.06 0.06
0.02 0.03 0.04 0.03 0.03 0.04 0.03 0.03 0.03 0.02 0.02 0.02 0.02 0.02 0.02 0.02 0.02 0.02 0.02 0.02 0.01 0.01 0.01 0.02 0.03 0.04 0.05 0.03 0.03 0.04 0.05 0.05 0.05 0.04 0.05 0.05 0.04 0.03 0.04 0.05 0.05 0.04 0.04
0.02 0.04 0.05 0.04 0.04 0.03 0.03 0.02 0.02 0.02 0.01 0.02 0.02 0.02 0.02 0.02 0.02 0.02 0.02 0.02 0.01 0.01 0.01 0.02 0.03 0.02 0.02 0.02 0.02 0.04 0.05 0.06 0.05 0.04 0.04 0.04 0.04 0.03 0.03 0.04 0.04 0.04 0.04
0.01 0.02 0.04 0.05 0.05 0.04 0.03 0.02 0.01 0.01 0.02 0.01 0.01 0.02 0.02 0.01 0.01 0.01 0.01 0.02 0.01 0.01 0.01 0.01 0.01 0.01 0.01 0.01 0.02 0.03 0.03 0.04 0.03 0.03 0.02 0.02 0.02 0.02 0.02 0.03 0.03 0.03 0.04
0.01 0.02 0.04 0.05 0.06 0.05 0.03 0.02 0.01 0.01 0.02 0.02 0.02 0.02 0.01 0.01 0.01 0.01 0.01 0.01 0.01 0.01 0.02 0.01 0.01 0.01 0.01 0.01 0.02 0.02 0.02 0.02 0.01 0.01 0.01 0.02 0.02 0.02 0.02 0.02 0.02 0.03 0.04
0.02 0.03 0.05 0.05 0.06 0.05 0.03 0.02 0.02 0.02 0.01 0.02 0.02 0.02 0.01 0.01 0.01 0.01 0.01 0.01 0.02 0.02 0.02 0.01 0.01 0.01 0.01 0.02 0.02 0.02 0.02 0.02 0.01 0.01 0.01 0.02 0.02 0.02 0.03 0.03 0.03 0.03 0.03
0.02 0.04 0.04 0.05 0.04 0.04 0.03 0.02 0.03 0.02 0.01 0.02 0.02 0.02 0.02 0.02 0.02 0.01 0.01 0.01 0.01 0.01 0.01 0.01 0.01 0.01 0.01 0.02 0.02 0.02 0.02 0.02 0.02 0.02 0.02 0.02 0.02 0.03 0.03 0.03 0.03 0.02 0.02
0.02 0.02 0.02 0.02 0.02 0.02 0.02 0.02 0.02 0.02 0.01 0.01 0.01 0.02 0.03 0.03 0.02 0.02 0.02 0.02 0.02 0.02 0.02 0.01 0.01 0.01 0.02 0.02 0.01 0.02 0.02 0.03 0.03 0.03 0.03 0.03 0.02 0.02 0.02 0.02 0.03 0.03 0.03
0.02 0.02 0.02 0.02 0.02 0.02 0.02 0.02 0.02 0.02 0.02 0.02 0.02 0.02 0.02 0.03 0.02 0.02 0.02 0.01 0.01 0.02 0.02 0.02 0.02 0.02 0.02 0.02 0.02 0.02 0.02 0.03 0.04 0.03 0.04 0.04 0.02 0.02 0.02 0.02 0.02 0.03 0.03
0.02 0.03 0.03 0.02 0.02 0.02 0.02 0.02 0.02 0.02 0.02 0.03 0.02 0.02 0.02 0.03 0.03 0.03 0.02 0.01 0.01 0.01 0.01 0.01 0.01 0.01 0.01 0.01 0.01 0.01 0.02 0.02 0.03 0.04 0.03 0.03 0.02 0.01 0.02 0.02 0.02 0.03 0.03
0.05 0.05 0.03 0.03 0.04 0.03 0.04 0.04 0.04 0.04 0.03 0.04 0.03 0.03 0.03 0.03 0.03 0.02 0.01 0.01 0.02 0.02 0.02 0.02 0.01 0.01 0.01 0.01 0.01 0.01 0.02 0.02 0.04 0.05 0.04 0.03 0.02 0.02 0.03 0.03 0.02 0.02 0.03
0.06 0.05 0.04 0.04 0.05 0.06 0.07 0.06 0.04 0.03 0.03 0.03 0.03 0.04 0.03 0.03 0.03 0.02 0.01 0.01 0.01 0.01 0.02 0.02 0.02 0.02 0.01 0.00 0.00 0.01 0.03 0.04 0.05 0.05 0.03 0.03 0.03 0.02 0.04 0.03 0.02 0.03 0.03
0.05 0.06 0.04 0.03 0.05 0.07 0.05 0.03 0.03 0.03 0.03 0.02 0.03 0.04 0.02 0.02 0.02 0.01 0.01 0.01 0.01 0.01 0.01 0.01 0.02 0.02 0.02 0.01 0.01 0.02 0.04 0.03 0.03 0.03 0.02 0.02 0.02 0.02 0.02 0.03 0.02 0.02 0.03
0.02 0.04 0.04 0.03 0.03 0.03 0.04 0.05 0.05 0.05 0.05 0.03 0.03 0.03 0.02 0.03 0.02 0.01 0.01 0.01 0.01 0.01 0.01 0.01 0.02 0.02 0.02 0.03 0.03 0.03 0.02 0.01 0.02 0.02 0.01 0.01 0.02 0.02 0.02 0.03 0.03 0.03 0.03
0.01 0.02 0.03 0.03 0.02 0.02 0.03 0.03 0.03 0.04 0.04 0.04 0.03 0.03 0.02 0.03 0.02 0.01 0.01 0.01 0.01 0.01 0.01 0.01 0.01 0.02 0.02 0.02 0.02 0.01 0.01 0.01 0.01 0.01 0.01 0.01 0.02 0.01 0.02 0.03 0.02 0.02 0.01
0.01 0.01 0.02 0.02 0.02 0.03 0.03 0.03 0.03 0.03 0.04 0.05 0.04 0.04 0.03 0.02 0.01 0.01 0.01 0.01 0.01 0.01 0.01 0.01 0.02 0.01 0.01 0.01 0.01 0.01 0.01 0.01 0.02 0.02 0.01 0.01 0.01 0.01 0.01 0.02 0.02 0.02 0.01
0.00 0.01 0.02 0.02 0.01 0.02 0.03 0.03 0.03 0.03 0.03 0.05 0.05 0.04 0.04 0.04 0.03 0.02 0.01 0.01 0.01 0.01 0.01 0.01 0.01 0.01 0.01 0.01 0.01 0.01 0.01 0.01 0.01 0.01 0.02 0.02 0.02 0.02 0.02 0.02 0.04 0.03 0.02
0.01 0.01 0.02 0.01 0.01 0.01 0.02 0.03 0.04 0.05 0.05 0.04 0.04 0.03 0.03 0.03 0.03 0.02 0.01 0.01 0.01 0.01 0.01 0.01 0.01 0.00 0.00 0.00 0.00 0.00 0.01 0.01 0.01 0.01 0.02 0.02 0.02 0.01 0.02 0.02 0.02 0.03 0.02
0.01 0.01 0.01 0.01 0.01 0.01 0.02 0.02 0.03 0.04 0.05 0.05 0.05 0.05 0.04 0.03 0.03 0.02 0.01 0.00 0.00 0.00 0.01 0.01 0.01 0.00 0.00 0.01 0.01 0.01 0.01 0.01 0.01 0.01 0.01 0.01 0.01 0.01 0.02 0.02 0.01 0.02 0.02
0.01 0.00 0.01 0.01 0.01 0.01 0.01 0.01 0.02 0.03 0.03 0.02 0.03 0.04 0.04 0.04 0.04 0.02 0.01 0.00 0.00 0.00 0.00 0.00 0.00 0.00 0.00 0.00 0.00 0.00 0.00 0.00 0.01 0.01 0.00 0.00 0.00 0.00 0.01 0.01 0.01 0.01 0.01
MSLP
1017.84 1018.31 1018.70 1019.01 1019.22 1019.36 1019.44 1019.48 1019.50 1019.52 1019.54 1019.57 1019.60 1019.62 1019.62 1019.61 1019.58 1019.53 1019.45 1019.37 1019.29 1019.20 1019.11 1019.01 1018.92 1018.81 1018.68 1018.51 1018.30 1018.05 1017.75 1017.40 1017.02 1016.63 1016.25 1015.90 1015.60 1015.37 1015.22 1015.14 1015.13 1015.18 1015.27
1017.85 1018.37 1018.80 1019.11 1019.32 1019.44 1019.49 1019.51 1019.52 1019.54 1019.58 1019.64 1019.71 1019.77 1019.81 1019.81 1019.77 1019.70 1019.60 1019.48 1019.36 1019.25 1019.15 1019.06 1018.97 1018.88 1018.77 1018.62 1018.42 1018.17 1017.87 1017.52 1017.15 1016.77 1016.40 1016.07 1015.80 1015.59 1015.46 1015.39 1015.38 1015.42 1015.51
1017.69 1018.31 1018.81 1019.18 1019.41 1019.53 1019.57 1019.56 1019.55 1019.57 1019.62 1019.70 1019.80 1019.89 1019.95 1019.97 1019.93 1019.84 1019.71 1019.56 1019.41 1019.28 1019.17 1019.08 1019.01 1018.93 1018.85 1018.72 1018.55 1018.31 1018.02 1017.69 1017.33 1016.96 1016.61 1016.31 1016.06 1015.88 1015.77 1015.72 1015.72 1015.76 1015.84
1017.43 1018.18 1018.80 1019.25 1019.53 1019.67 1019.71 1019.69 1019.66 1019.66 1019.71 1019.79 1019.90 1020.01 1020.09 1020.12 1020.08 1019.97 1019.83 1019.65 1019.48 1019.32 1019.20 1019.11 1019.05 1019.00 1018.93 1018.84 1018.69 1018.48 1018.21 1017.89 1017.54 1017.18 1016.85 1016.57 1016.34 1016.17 1016.08 1016.04 1016.06 1016.11 1016.19
1017.16 1018.07 1018.82 1019.38 1019.73 1019.90 1019.95 1019.92 1019.87 1019.84 1019.87 1019.95 1020.06 1020.17 1020.26 1020.29 1020.25 1020.14 1019.98 1019.79 1019.59 1019.41 1019.28 1019.19 1019.13 1019.09 1019.05 1018.98 1018.85 1018.66 1018.41 1018.10 1017.76 1017.41 1017.08 1016.79 1016.57 1016.41 1016.32 1016.29 1016.31 1016.37 1016.47
1017.00 1018.06 1018.94 1019.60 1020.03 1020.24 1020.29 1020.25 1020.18 1020.12 1020.12 1020.18 1020.27 1020.38 1020.47 1020.51 1020.47 1020.36 1020.19 1019.98 1019.77 1019.58 1019.43 1019.33 1019.27 1019.24 1019.20 1019.14 1019.03 1018.85 1018.60 1018.29 1017.95 1017.59 1017.24 1016.94 1016.69 1016.51 1016.41 1016.37 1016.40 1016.47 1016.58
1017.04 1018.21 1019.20 1019.95 1020.43 1020.67 1020.73 1020.67 1020.56 1020.47 1020.43 1020.45 1020.53 1020.63 1020.72 1020.76 1020.73 1020.62 1020.45 1020.23 1020.00 1019.80 1019.63 1019.51 1019.45 1019.41 1019.37 1019.31 1019.20 1019.02 1018.77 1018.45 1018.08 1017.69 1017.31 1016.97 1016.68 1016.46 1016.32 1016.26 1016.27 1016.35 1016.48
1017.30 1018.55 1019.60 1020.39 1020.90 1021.15 1021.20 1021.11 1020.96 1020.83 1020.75 1020.74 1020.79 1020.88 1020.96 1021.00 1020.98 1020.88 1020.71 1020.49 1020.26 1020.04 1019.85 1019.72 1019.63 1019.57 1019.52 1019.45 1019.33 1019.14 1018.87 1018.53 1018.14 1017.71 1017.28 1016.88 1016.53 1016.26 1016.07 1015.97 1015.96 1016.02 1016.16
1017.78 1019.03 1020.08 1020.87 1021.37 1021.60 1021.62 1021.49 1021.31 1021.14 1021.02 1020.97 1021.00 1021.07 1021.15 1021.19 1021.18 1021.09 1020.93 1020.72 1020.48 1020.25 1020.05 1019.89 1019.78 1019.69 1019.62 1019.53 1019.40 1019.19 1018.91 1018.55 1018.13 1017.66 1017.18 1016.72 1016.31 1015.97 1015.72 1015.56 1015.51 1015.55 1015.68
1018.38 1019.57 1020.57 1021.30 1021.74 1021.93 1021.91 1021.75 1021.53 1021.32 1021.17 1021.10 1021.11 1021.16 1021.24 1021.29 1021.28 1021.21 1021.06 1020.86 1020.62 1020.39 1020.17 1019.99 1019.85 1019.75 1019.65 1019.54 1019.39 1019.18 1018.89 1018.51 1018.06 1017.57 1017.05 1016.54 1016.08 1015.67 1015.35 1015.13 1015.03 1015.03 1015.14
1018.97 1020.05 1020.94 1021.57 1021.94 1022.06 1021.99 1021.80 1021.56 1021.33 1021.16 1021.07 1021.07 1021.12 1021.20 1021.25 1021.26 1021.20 1021.07 1020.88 1020.65 1020.41 1020.18 1019.99 1019.83 1019.71 1019.59 1019.47 1019.31 1019.09 1018.80 1018.43 1017.98 1017.48 1016.95 1016.41 1015.90 1015.45 1015.07 1014.80 1014.64 1014.59 1014.65
1019.43 1020.36 1021.11 1021.62 1021.89 1021.96 1021.85 1021.63 1021.38 1021.15 1020.99 1020.90 1020.90 1020.95 1021.03 1021.09 1021.11 1021.06 1020.94 1020.77 1020.55 1020.31 1020.09 1019.89 1019.72 1019.58 1019.45 1019.32 1019.16 1018.95 1018.68 1018.32 1017.90 1017.42 1016.89 1016.36 1015.83 1015.35 1014.94 1014.62 1014.40 1014.30 1014.31
1019.66 1020.43 1021.02 1021.41 1021.60 1021.60 1021.47 1021.26 1021.03 1020.82 1020.68 1020.62 1020.63 1020.69 1020.77 1020.84 1020.86 1020.82 1020.72 1020.55 1020.35 1020.12 1019.89 1019.69 1019.51 1019.37 1019.23 1019.10 1018.95 1018.76 1018.51 1018.19 1017.81 1017.36 1016.88 1016.36 1015.85 1015.37 1014.95 1014.60 1014.34 1014.19 1014.14
1019.63 1020.24 1020.69 1020.97 1021.09 1021.06 1020.93 1020.74 1020.55 1020.40 1020.30 1020.28 1020.31 1020.38 1020.47 1020.53 1020.56 1020.52 1020.42 1020.27 1020.07 1019.85 1019.63 1019.43 1019.25 1019.09 1018.96 1018.82 1018.68 1018.51 1018.29 1018.01 1017.68 1017.29 1016.85 1016.39 1015.92 1015.46 1015.04 1014.68 1014.40 1014.21 1014.11
1019.38 1019.84 1020.17 1020.37 1020.44 1020.40 1020.30 1020.17 1020.04 1019.95 1019.92 1019.93 1020.00 1020.08 1020.17 1020.23 1020.25 1020.21 1020.11 1019.95 1019.76 1019.55 1019.33 1019.12 1018.94 1018.78 1018.64 1018.50 1018.36 1018.20 1018.01 1017.77 1017.48 1017.15 1016.77 1016.36 1015.94 1015.53 1015.13 1014.78 1014.49 1014.28 1014.14
1018.99 1019.34 1019.58 1019.71 1019.76 1019.74 1019.68 1019.62 1019.57 1019.56 1019.58 1019.65 1019.73 1019.83 1019.91 1019.96 1019.96 1019.91 1019.79 1019.63 1019.44 1019.22 1019.01 1018.80 1018.61 1018.44 1018.29 1018.14 1018.00 1017.85 1017.66 1017.45 1017.19 1016.90 1016.57 1016.21 1015.85 1015.47 1015.12 1014.79 1014.51 1014.29 1014.13
1018.57 1018.84 1019.02 1019.12 1019.16 1019.17 1019.17 1019.17 1019.20 1019.25 1019.33 1019.44 1019.54 1019.64 1019.71 1019.73 1019.71 1019.62 1019.49 1019.32 1019.11 1018.89 1018.67 1018.46 1018.27 1018.09 1017.93 1017.77 1017.61 1017.45 1017.26 1017.05 1016.81 1016.54 1016.24 1015.92 1015.59 1015.25 1014.93 1014.63 1014.36 1014.15 1013.99
1018.26 1018.47 1018.60 1018.68 1018.73 1018.77 1018.81 1018.87 1018.96 1019.06 1019.19 1019.31 1019.42 1019.50 1019.55 1019.54 1019.47 1019.35 1019.19 1018.99 1018.78 1018.55 1018.33 1018.12 1017.92 1017.74 1017.57 1017.40 1017.23 1017.05 1016.85 1016.63 1016.38 1016.11 1015.81 1015.50 1015.18 1014.86 1014.56 1014.28 1014.03 1013.83 1013.69
1018.11 1018.29 1018.39 1018.46 1018.51 1018.57 1018.64 1018.73 1018.85 1018.98 1019.12 1019.24 1019.34 1019.39 1019.39 1019.34 1019.23 1019.07 1018.87 1018.65 1018.42 1018.19 1017.97 1017.77 1017.58 1017.40 1017.23 1017.06 1016.89 1016.69 1016.48 1016.23 1015.96 1015.67 1015.35 1015.02 1014.69 1014.37 1014.06 1013.79 1013.56 1013.37 1013.25
1018.16 1018.30 1018.39 1018.45 1018.49 1018.55 1018.63 1018.73 1018.85 1018.98 1019.10 1019.21 1019.27 1019.28 1019.23 1019.12 1018.96 1018.75 1018.52 1018.27 1018.03 1017.80 1017.59 1017.40 1017.24 1017.08 1016.93 1016.78 1016.61 1016.41 1016.19 1015.92 1015.62 1015.29 1014.94 1014.58 1014.21 1013.86 1013.54 1013.25 1013.02 1012.85 1012.75
1018.36 1018.49 1018.57 1018.61 1018.64 1018.68 1018.73 1018.82 1018.92 1019.02 1019.11 1019.17 1019.18 1019.14 1019.03 1018.87 1018.65 1018.40 1018.13 1017.86 1017.60 1017.37 1017.18 1017.02 1016.89 1016.78 1016.67 1016.55 1016.41 1016.23 1016.01 1015.73 1015.41 1015.04 1014.65 1014.24 1013.83 1013.44 1013.08 1012.78 1012.54 1012.38 1012.29
1018.65 1018.78 1018.84 1018.86 1018.87 1018.88 1018.91 1018.95 1019.01 1019.07 1019.12 1019.12 1019.08 1018.98 1018.82 1018.59 1018.32 1018.02 1017.72 1017.42 1017.16 1016.93 1016.76 1016.64 1016.55 1016.49 1016.44 1016.37 1016.27 1016.12 1015.92 1015.65 1015.31 1014.92 1014.49 1014.04 1013.58 1013.14 1012.75 1012.42 1012.17 1012.01 1011.94
1018.94 1019.07 1019.13 1019.14 1019.12 1019.11 1019.10 1019.10 1019.12 1019.13 1019.12 1019.07 1018.97 1018.82 1018.60 1018.32 1018.00 1017.65 1017.31 1016.99 1016.71 1016.49 1016.33 1016.24 1016.20 1016.19 1016.19 1016.18 1016.13 1016.03 1015.86 1015.61 1015.27 1014.88 1014.42 1013.94 1013.45 1012.98 1012.56 1012.21 1011.95 1011.78 1011.72
1019.17 1019.31 1019.37 1019.37 1019.34 1019.30 1019.26 1019.23 1019.20 1019.17 1019.11 1019.02 1018.87 1018.67 1018.40 1018.08 1017.71 1017.33 1016.94 1016.59 1016.29 1016.06 1015.91 1015.83 1015.82 1015.84 1015.89 1015.93 1015.93 1015.88 1015.74 1015.51 1015.20 1014.81 1014.35 1013.86 1013.36 1012.87 1012.44 1012.09 1011.83 1011.67 1011.62
1019.28 1019.44 1019.51 1019.51 1019.48 1019.43 1019.37 1019.31 1019.25 1019.19 1019.10 1018.97 1018.80 1018.55 1018.25 1017.89 1017.48 1017.06 1016.64 1016.25 1015.92 1015.67 1015.49 1015.41 1015.40 1015.44 1015.50 1015.57 1015.60 1015.57 1015.46 1015.26 1014.97 1014.60 1014.16 1013.68 1013.19 1012.73 1012.31 1011.98 1011.74 1011.60 1011.57
1019.27 1019.44 1019.53 1019.55 1019.53 1019.47 1019.41 1019.34 1019.27 1019.19 1019.08 1018.93 1018.73 1018.47 1018.14 1017.75 1017.31 1016.85 1016.40 1015.97 1015.60 1015.31 1015.09 1014.97 1014.93 1014.95 1015.00 1015.05 1015.08 1015.05 1014.96 1014.77 1014.50 1014.15 1013.74 1013.30 1012.86 1012.44 1012.07 1011.78 1011.58 1011.48 1011.47
Thickness
5725 5721 5717 5714 5710 5706 5702 5698 5694 5691 5688 5685 5683 5679 5675 5672 5669 5666 5663 5662 5661 5660 5659 5660 5658 5657 5657 5656 5656 5657 5659 5660 5660 5661 5661 5662 5663 5662 5661 5662 5663 5664 5663
5718 5714 5711 5708 5705 5701 5697 5692 5688 5685 5682 5679 5675 5671 5667 5665 5662 5658 5655 5653 5652 5651 5652 5649 5650 5649 5648 5647 5647 5647 5649 5651 5652 5652 5653 5653 5654 5653 5655 5655 5655 5656 5657
5715 5710 5706 5703 5700 5696 5691 5687 5682 5679 5675 5672 5669 5665 5661 5658 5654 5651 5648 5645 5643 5642 5641 5640 5639 5639 5640 5640 5638 5638 5639 5641 5644 5645 5645 5645 5646 5646 5647 5647 5648 5648 5649
5714 5708 5703 5699 5694 5690 5685 5680 5676 5672 5669 5665 5662 5658 5654 5650 5646 5643 5640 5637 5635 5634 5632 5631 5630 5630 5631 5630 5631 5632 5632 5632 5634 5636 5637 5638 5639 5638 5638 5639 5640 5641 5642
5712 5706 5701 5695 5690 5685 5680 5675 5670 5665 5661 5657 5653 5650 5647 5643 5639 5635 5631 5629 5628 5625 5624 5623 5622 5621 5622 5622 5622 5622 5624 5625 5626 5627 5629 5630 5632 5634 5633 5632 5632 5634 5636
5708 5702 5697 5691 5684 5679 5673 5668 5663 5658 5654 5650 5646 5642 5638 5634 5630 5627 5624 5623 5621 5618 5616 5615 5614 5614 5614 5613 5614 5615 5616 5616 5617 5619 5621 5622 5624 5627 5628 5627 5626 5627 5629
5703 5696 5690 5684 5678 5672 5667 5662 5657 5652 5648 5643 5638 5634 5630 5627 5623 5620 5618 5616 5614 5611 5608 5607 5606 5606 5605 5605 5606 5607 5608 5609 5610 5612 5614 5617 5618 5620 5622 5623 5622 5621 5622
5700 5693 5685 5679 5673 5666 5660 5655 5651 5646 5642 5637 5632 5627 5624 5622 5619 5614 5612 5609 5606 5604 5600 5599 5599 5598 5598 5599 5599 5601 5602 5602 5603 5605 5607 5609 5612 5614 5616 5617 5617 5617 5617
5695 5687 5680 5674 5668 5661 5655 5650 5645 5640 5636 5631 5627 5622 5619 5615 5612 5608 5605 5602 5598 5597 5594 5592 5592 5591 5591 5591 5592 5593 5593 5595 5597 5599 5601 5603 5605 5607 5610 5612 5613 5614 5614
5688 5681 5674 5668 5662 5655 5649 5644 5639 5635 5630 5626 5622 5618 5614 5610 5606 5603 5599 5595 5592 5589 5588 5587 5586 5585 5585 5585 5585 5587 5587 5588 5589 5590 5592 5595 5599 5601 5603 5606 5608 5610 5611
5681 5674 5667 5662 5656 5649 5644 5638 5634 5629 5625 5622 5617 5612 5609 5604 5601 5597 5594 5590 5587 5585 5583 5582 5580 5580 5579 5578 5578 5579 5580 5581 5582 5584 5585 5587 5590 5594 5597 5599 5602 5604 5605
5676 5669 5662 5655 5649 5643 5639 5634 5629 5625 5621 5617 5612 5607 5603 5599 5596 5592 5589 5585 5582 5580 5578 5577 5576 5575 5574 5572 5572 5572 5573 5575 5576 5578 5579 5582 5585 5587 5591 5593 5595 5597 5598
5669 5663 5657 5650 5644 5640 5635 5630 5625 5621 5617 5612 5608 5603 5599 5595 5591 5587 5584 5581 5578 5576 5575 5573 5572 5570 5568 5567 5567 5566 5567 5568 5569 5571 5573 5576 5579 5582 5585 5587 5590 5592 5594
5663 5658 5652 5646 5641 5636 5631 5626 5621 5617 5612 5608 5603 5598 5595 5591 5587 5584 5581 5577 5575 5573 5571 5570 5568 5566 5565 5563 5563 5562 5562 5563 5564 5565 5568 5570 5573 5576 5578 5581 5583 5586 5587
5658 5653 5648 5643 5637 5632 5627 5622 5618 5613 5608 5604 5600 5596 5592 5588 5584 5581 5578 5574 5572 5570 5568 5566 5565 5563 5562 5560 5557 5558 5558 5558 5559 5561 5563 5565 5566 5568 5571 5575 5577 5579 5582
5655 5650 5644 5639 5633 5628 5624 5619 5614 5609 5605 5601 5597 5593 5589 5585 5581 5578 5575 5572 5569 5567 5565 5564 5562 5561 5559 5554 5551 5551 5555 5556 5558 5559 5560 5562 5564 5564 5565 5567 5569 5572 5576
5651 5646 5641 5636 5631 5626 5622 5616 5611 5607 5603 5598 5594 5590 5586 5583 5580 5577 5574 5571 5568 5565 5563 5562 5560 5559 5555 5550 5549 5549 5551 5555 5556 5557 5558 5561 5562 5562 5565 5565 5565 5567 5568
5647 5642 5638 5633 5628 5624 5618 5614 5610 5605 5601 5596 5592 5589 5585 5582 5579 5576 5572 5569 5567 5564 5562 5560 5559 5557 5554 5549 5548 5548 5551 5554 5554 5555 5556 5557 5558 5559 5560 5563 5565 5566 5567
5643 5638 5634 5630 5626 5621 5616 5611 5607 5603 5599 5595 5591 5588 5584 5581 5578 5575 5571 5569 5566 5564 5561 5560 5558 5556 5553 5549 5548 5546 5552 5554 5554 5554 5554 5555 5556 5554 5554 5558 5561 5563 5564
5639 5634 5631 5627 5622 5617 5613 5608 5604 5601 5597 5594 5591 5587 5583 5580 5577 5573 5570 5568 5566 5564 5563 5561 5558 5556 5554 5550 5548 5546 5553 5554 5554 5554 5554 5552 5552 5552 5552 5556 5559 5560 5563
5634 5631 5627 5623 5619 5615 5610 5606 5603 5600 5597 5594 5590 5586 5582 5579 5576 5573 5570 5567 5566 5565 5563 5561 5559 5557 5554 5551 5548 5546 5549 5553 5555 5556 5557 5556 5551 5551 5551 5552 5556 5557 5559
5631 5627 5623 5619 5616 5612 5608 5605 5602 5599 5596 5592 5588 5584 5581 5579 5577 5572 5569 5567 5566 5565 5564 5562 5561 5560 5557 5553 5550 5547 5546 5547 5551 5554 5556 5556 5551 5551 5551 5553 5555 5555 5556
5627 5624 5620 5616 5613 5610 5607 5603 5600 5597 5594 5590 5586 5583 5580 5578 5576 5573 5571 5569 5568 5568 5568 5566 5565 5564 5562 5558 5552 5550 5549 5548 5550 5554 5553 5552 5551 5552 5554 5555 5555 5556 5560
5623 5620 5617 5614 5611 5608 5605 5603 5599 5596 5592 5588 5585 5582 5580 5578 5576 5574 5574 5572 5571 5570 5569 5568 5567 5566 5564 5563 5560 5558 5556 5553 5554 5555 5555 5553 5553 5554 5555 5557 5560 5562 5564
5621 5618 5615 5613 5610 5607 5604 5601 5598 5594 5591 5588 5585 5583 5581 5580 5578 5577 5575 5574 5572 5570 5567 5568 5567 5566 5565 5561 5555 5555 5558 5558 5557 5556 5559 5562 5563 5564 5565 5565 5566 5566 5566
5619 5616 5613 5611 5609 5606 5603 5600 5597 5594 5591 5588 5585 5585 5583 5582 5581 5580 5578 5574 5571 5568 5565 5562 5561 5564 5561 5558 5556 5554 5553 5553 5551 5554 5562 5566 5567 5567 5568 5569 5569 5570 5570